#timestamp,LO_Frequency,Hit,StdDev 
1656280815.3,286047000.4,N
1656280835.1,286047000.3,N
1656280855.9,286047000.3,N
1656280875.7,286046999.8,N
1656280895.5,286047000.3,N
1656280915.4,286047000.6,N
1656280935.2,286047000.6,N
1656280955.0,286047001.0,N
1656280955.9,286047001.0,N
1656280975.8,286047001.2,N
1656280995.6,286046998.2,N
1656281015.5,286047001.0,N
1656281035.3,286046998.7,N
1656281055.1,286046999.0,N
1656281075.9,286046998.6,N
1656281095.7,286047000.9,N
1656281115.5,286047000.9,N
1656281135.4,286047000.3,N
1656281155.2,286047000.3,N
1656281175.1,286046999.9,N
1656281176.0,286046999.9,N
1656281195.8,286047000.5,N
1656281215.6,286047000.6,N
1656281235.5,286047001.1,N
1656281255.3,286046998.1,N
1656281275.1,286047000.7,N
1656281295.9,286047000.9,N
1656281315.7,286047000.0,N
1656281335.6,286047000.1,N
1656281355.4,286047000.9,N
1656281375.2,286047000.7,N
1656281395.1,286047000.7,N
1656281396.0,286047000.7,N
1656281415.8,286047000.4,N
1656281435.7,286047001.2,N
1656281455.5,286047000.1,N
1656281475.3,286047001.1,N
1656281495.2,286047000.9,N
1656281515.0,286047000.0,N
1656281515.9,286047000.0,N
1656281535.7,286047000.2,N
1656281555.6,286046999.9,N
1656281575.4,286046999.8,N
1656281595.3,286046999.8,N
1656281615.1,286047000.1,N
1656281616.0,286047000.1,N
1656281635.8,286047000.7,N
1656281655.7,286047000.9,N
1656281675.5,286047001.0,N
1656281695.4,286047000.9,N
1656281715.2,286046999.7,N
1656281735.0,286047002.8,Y
1656281735.9,286047002.8,P
1656281755.8,286047000.3,N
1656281775.6,286047000.2,N
1656281795.4,286047000.2,N
1656281815.3,286047000.3,N
1656281835.1,286047000.0,N
1656281855.9,286047000.6,N
1656281875.7,286047000.2,N
1656281895.5,286047000.5,N
1656281915.4,286047000.2,N
1656281935.2,286047002.3,Y
1656281955.1,286047000.2,P
1656281956.0,286047000.2,N
1656281975.8,286047002.8,P
1656281995.6,286047002.5,N
1656282015.5,286047001.5,N
1656282035.3,286047002.8,N
1656282055.2,286047002.7,N
1656282075.9,286047002.8,N
1656282095.7,286047002.5,N
1656282115.6,286047002.8,N
1656282135.4,286047000.7,N
1656282155.2,286047002.6,N
1656282175.1,286047002.4,N
1656282176.0,286047002.4,N
1656282195.8,286047000.2,N
1656282215.7,286046998.2,N
1656282235.5,286046998.1,N
1656282255.3,286047001.0,N
1656282275.2,286046998.6,N
1656282295.0,286046999.5,N
1656282295.9,286046999.5,N
1656282315.8,286046999.6,N
1656282335.6,286046997.3,N
1656282355.4,286046996.6,N
1656282375.3,286046999.4,N
1656282395.1,286046999.0,N
1656282415.8,286046998.3,N
1656282435.7,286047000.8,N
1656282455.5,286046998.3,N
1656282475.4,286046996.8,N
1656282495.2,286046996.5,N
1656282515.0,286046997.9,N
1656282515.9,286046997.9,N
1656282535.8,286046999.6,N
1656282555.6,286046996.6,N
1656282575.4,286046996.7,N
1656282595.3,286046999.2,N
1656282615.1,286046996.9,N
1656282635.9,286046997.8,N
1656282655.7,286046997.0,N
1656282675.5,286046999.5,N
1656282695.4,286046996.5,N
1656282715.2,286046999.2,N
1656282735.0,286046996.9,N
1656282735.9,286046996.9,N
1656282755.8,286046997.3,N
1656282775.6,286046997.5,N
1656282795.5,286046996.5,N
1656282815.3,286046996.6,N
1656282835.1,286046997.0,N
1656282855.9,286046997.7,N
1656282875.7,286046997.1,N
1656282895.5,286046999.3,N
1656282915.4,286046999.2,N
1656282935.2,286046996.7,N
1656282955.1,286046999.5,N
1656282956.0,286046999.5,N
1656282975.8,286046996.7,N
1656282995.6,286046997.2,N
1656283015.5,286046996.7,Y
1656283035.3,286047001.2,P
1656283055.2,286046998.3,N
1656283075.9,286047001.1,N
1656283095.7,286046998.5,N
1656283115.6,286047000.9,N
1656283135.4,286047001.2,N
1656283155.2,286046998.7,N
1656283175.1,286046996.7,N
1656283176.0,286046996.7,N
1656283195.8,286046995.0,N
1656283215.7,286046994.9,N
1656283235.5,286046995.7,N
1656283255.3,286046995.0,N
1656283275.2,286046995.1,N
1656283295.0,286046995.7,N
1656283295.9,286046995.7,N
1656283315.7,286046995.5,N
1656283335.6,286046995.1,N
1656283355.4,286046995.4,N
1656283375.3,286046998.0,N
1656283395.1,286046994.9,N
1656283396.0,286046994.9,N
1656283415.8,286046997.6,N
1656283435.7,286046997.5,N
1656283455.5,286046995.7,N
1656283475.4,286046995.0,N
1656283495.2,286046995.2,N
1656283515.0,286046995.2,N
1656283515.9,286046995.2,N
1656283535.8,286046995.1,N
1656283555.6,286046997.9,N
1656283575.4,286046997.7,N
1656283595.3,286046995.2,N
1656283615.1,286046997.4,N
1656283635.9,286046995.3,N
1656283655.7,286046997.3,N
1656283675.5,286046997.9,N
1656283695.4,286046997.2,N
1656283715.2,286046998.0,N
1656283735.1,286046995.1,Y
1656283736.0,286046995.1,P
1656283755.8,286047000.3,N
1656283775.6,286047000.2,N
1656283795.5,286047002.8,N
1656283815.3,286047002.7,N
1656283835.1,286047000.5,N
1656283855.9,286047002.6,N
1656283875.7,286047002.4,N
1656283895.6,286047000.6,N
1656283915.4,286047000.3,N
1656283935.2,286047000.5,N
1656283955.1,286047001.2,N
1656283956.0,286047001.2,N
1656283975.8,286047000.7,N
1656283995.7,286047000.6,N
1656284015.5,286047001.0,N
1656284035.3,286046998.1,N
1656284055.2,286047000.5,N
1656284075.0,286047000.9,N
1656284075.9,286047000.9,N
1656284095.8,286047001.0,N
1656284115.6,286047000.0,N
1656284135.4,286047000.6,N
1656284155.3,286047000.0,N
1656284175.1,286047000.1,N
1656284195.8,286047000.1,N
1656284215.7,286046999.7,N
1656284235.5,286047000.9,N
1656284255.4,286046998.1,N
1656284275.2,286046998.3,N
1656284295.0,286046998.4,N
1656284295.9,286046998.4,N
1656284315.8,286046998.7,N
1656284335.6,286046998.4,N
1656284355.5,286046999.4,N
1656284375.3,286046998.6,N
1656284395.1,286046998.3,N
